Weather Roundup
Issued by NWS Chicago, IL

Home | Current Version | Previous Version | Graphics & Text | Print | Product List | Glossary On
Versions: 1 2 3 4 5 6 7 8 9 10 11 12 13 14 15 16 17 18 19 20 21 22 23 24 25 26 27 28 29 30 31 32 33 34 35 36 37 38 39 40 41 42 43 44 45 46 47 48 49 50
000
NZUS59 KLOT 020406
HRRLOT

CHICAGO AREA WEATHER ROUNDUP
NATIONAL WEATHER SERVICE CHICAGO/ROMEOVILLE IL
1100 PM CDT FRI AUG 01 2014

NOTE: "FAIR" INDICATES FEW OR NO CLOUDS BELOW 12,000 FEET WITH NO
SIGNIFICANT WEATHER AND/OR OBSTRUCTIONS TO VISIBILITY.

* THESE STATIONS ARE NOT UNDER NWS QUALITY CONTROL. THEY ALSO MAY NOT
  REPORT WEATHER SUCH AS PRECIPITATION OR FOG.

ILZ005-006-012>014-019>023-020500-
NORTHEAST ILLINOIS

CITY           SKY/WX    TMP DP  RH WIND       PRES   REMARKS
OHARE          CLOUDY    68  54  60 NW5       30.11F
MIDWAY         MOCLDY    72  57  59 NW9       30.11F
AURORA         CLOUDY    64  56  75 W7        30.14F
LANSING*       MOCLDY    64  59  84 CALM      30.13S
JOLIET*        MOCLDY    67  58  72 N9        30.14S
WAUKEGAN       CLOUDY    64  56  75 VRB3      30.08F
DUPAGE AIRPORT CLOUDY    66  56  70 W5        30.11F
WHEELING       CLOUDY    68  56  65 CALM      30.11F
KANKAKEE*      MOCLDY    62  61  97 CALM      30.14R FOG
MORRIS*        MOCLDY    65  60  83 N3        30.13F
LEWIS AIRPORT* CLOUDY    67  55  64 N7        30.13F
NORTHERLY IS     N/A     71  57  61 CALM        N/A
$$

WIZ051-052-058>065-066-070>072-020500-
SOUTHEAST WISCONSIN

CITY           SKY/WX    TMP DP  RH WIND       PRES   REMARKS
MILWAUKEE      MOCLDY    65  54  67 CALM      30.10S
KENOSHA*       CLOUDY    61  57  87 S5        30.08F
RACINE*        MOCLDY    62  56  80 N3        30.10F
BURLINGTON     MOCLDY    57  55  95 NW6       30.10S
WAUKESHA       PTCLDY    59  54  82 S6        30.11F
WEST BEND      PTCLDY    61  54  77 CALM      30.10S
$$

INZ001>003-010>013-019-020-020500-
NORTHWEST INDIANA

CITY           SKY/WX    TMP DP  RH WIND       PRES   REMARKS
GARY*          MOCLDY    63  60  89 CALM      30.13S
MICHIGAN CITY* NOT AVBL
RENSSELAER*    NOT AVBL
VALPARAISO     PTCLDY    58  56  93 CALM      30.13R
$$

LMZ740>746-020500-
SOUTHERN LAKE MICHIGAN

STATION/POSITION TIME  SKY/WX   TEMP WIND        PRES    VSBY
                                AIR  DIR/SP/G
                 (UTC)          (F)  (DEG/KT/KT) (MB)    (MI)
HARRISON CRIB    0400            70  300/ 10/ 11   N/A
BURNHAM HARBOR   0400            71  130/  1/ 10   N/A
CALUMET HARBOR   0300                            1018.8
BURNS HARBOR     0300            69  200/  4/  6   N/A
MICHIGAN CITY    0400            68  190/  4/  5   N/A
$$

ABBREVIATIONS USED IN REMARKS
   TC - TEMPERATURE IN CELSIUS
  WCI - WIND CHILL INDEX
   HX - HEAT INDEX
  VSB - VISIBILITY
$$


USA.gov is the U.S. government's official web portal to all federal, state and local government web resources and services.